Walla Walla, WA

7:01 PM PDT on September 21, 2017 (GMT -0700)
Walla Walla Regional

Weather History for KALW - June, 2013

Change the Weather History Date:

Friday, June 21, 2013

  Actual Average Record
Temperature  
Mean Temperature 58 °F 68 °F  
Max Temperature 64 °F 81 °F 105 °F (1973)
Min Temperature 51 °F 55 °F 45 °F (1953)
Degree Days  
Heating Degree Days 8 1  
Month to date heating degree days 53  
Since 1 June heating degree days 53  
Since 1 July heating degree days 5002  
Cooling Degree Days 0 4  
Month to date cooling degree days 58  
Year to date cooling degree days 93  
Since 1 June cooling degree days 58  
Growing Degree Days 8 (Base 50)    
Moisture  
Dew Point 49 °F    
Average Humidity 76    
Maximum Humidity 94    
Minimum Humidity 50    
Precipitation  
Precipitation 0.21 in 0.04 in 0.33 in (1993)
Month to date precipitation 1.05  
Year to date precipitation 11.69  
Snow  
Snow 0.00 in 0.00 in 0.00 in (2002)
Month to date snowfall 0.0  
Year to date snowfall 6.0  
Since 1 July snowfall 11.7  
Snow Depth -    
Sea Level Pressure  
Sea Level Pressure 30.11 in    
Wind  
Wind Speed 7 mph (South)    
Max Wind Speed 13 mph    
Max Gust Speed -    
Visibility 9 miles    
Events Rain    
T = Trace of Precipitation, MM = Missing Value Source: NWS Daily Summary

Daily Weather History Graph

Daily Weather History Graph

Search for Another Location

Airport or City:

Trip Planner

Search our weather history database for the weather conditions in past years. The results will help you decide how hot, cold, wet, or windy it might be!

Date:

Astronomy

Jun. 21, 2013 Rise Set
Actual Time 5:02 AM PDT 8:48 PM PDT
Civil Twilight 4:23 AM PDT 9:26 PM PDT
Nautical Twilight 3:31 AM PDT 10:19 PM PDT
Astronomical Twilight 2:17 AM PDT 11:32 PM PDT
Moon 7:00 PM PDT (6/21) 3:26 AM PDT (6/21)
Length of Visible Light 17h 03m
Length of Day
15h 46m
Waxing Gibbous, 96% of the Moon is Illuminated
Jun 21
Waxing Gibbous
Jun 23
Full
Jun 29
Last Quarter
Jul 8
New
Jul 15
First Quarter

Hourly Weather History & Observations

Time (PDT) Temp. Dew Point Humidity Pressure Visibility Wind Dir Wind Speed Gust Speed Precip Events Conditions
12:53 AM 55.0 °F 48.9 °F 80% 30.08 in 10.0 mi East 5.8 mph - 0.00 in Rain Light Rain
1:53 AM 54.0 °F 50.0 °F 86% 30.08 in 5.0 mi East 4.6 mph - 0.02 in Rain Light Rain
2:53 AM 53.1 °F 51.1 °F 93% 30.08 in 7.0 mi Calm Calm - 0.06 in Rain Light Rain
3:21 AM 53.6 °F 51.8 °F 94% 30.09 in 5.0 mi West 3.5 mph - 0.02 in Rain Light Rain
3:53 AM 53.1 °F 51.1 °F 93% 30.08 in 8.0 mi South 3.5 mph - 0.04 in Rain Light Rain
4:53 AM 53.1 °F 51.1 °F 93% 30.08 in 10.0 mi South 12.7 mph - 0.03 in   Overcast
5:15 AM 53.6 °F 50.0 °F 88% 30.09 in 10.0 mi South 11.5 mph - 0.00 in Rain Light Rain
5:22 AM 53.6 °F 50.0 °F 88% 30.09 in 10.0 mi South 11.5 mph - 0.00 in Rain Light Rain
5:32 AM 53.6 °F 50.0 °F 88% 30.09 in 10.0 mi South 11.5 mph - 0.00 in Rain Light Rain
5:53 AM 53.1 °F 50.0 °F 89% 30.09 in 10.0 mi SSW 10.4 mph - 0.00 in Rain Light Rain
6:34 AM 51.8 °F 48.2 °F 88% 30.10 in 10.0 mi South 10.4 mph - 0.01 in Rain Light Rain
6:53 AM 52.0 °F 48.9 °F 89% 30.11 in 10.0 mi South 9.2 mph - 0.02 in Rain Light Rain
7:53 AM 53.1 °F 48.9 °F 86% 30.12 in 9.0 mi South 8.1 mph - 0.01 in Rain Light Rain
8:14 AM 53.6 °F 50.0 °F 88% 30.13 in 8.0 mi SSW 8.1 mph - 0.01 in Rain Light Rain
8:49 AM 53.6 °F 50.0 °F 88% 30.13 in 8.0 mi SSW 9.2 mph - 0.02 in Rain Light Rain
8:53 AM 54.0 °F 51.1 °F 90% 30.14 in 9.0 mi South 9.2 mph - 0.02 in Rain Light Rain
9:53 AM 55.0 °F 50.0 °F 83% 30.14 in 10.0 mi South 11.5 mph - 0.01 in Rain Light Rain
10:53 AM 57.0 °F 50.0 °F 77% 30.13 in 10.0 mi SSW 10.4 mph - 0.00 in   Overcast
11:53 AM 59.0 °F 48.9 °F 69% 30.14 in 10.0 mi SSW 10.4 mph - 0.00 in Rain Light Rain
12:38 PM 60.8 °F 48.2 °F 63% 30.12 in 10.0 mi SSW 9.2 mph - 0.00 in   Mostly Cloudy
12:53 PM 61.0 °F 46.9 °F 60% 30.13 in 10.0 mi SW 10.4 mph - 0.00 in   Overcast
1:53 PM 62.1 °F 48.9 °F 62% 30.13 in 10.0 mi West 12.7 mph - N/A   Overcast
2:53 PM 61.0 °F 45.0 °F 56% 30.13 in 10.0 mi West 5.8 mph - N/A   Overcast
3:53 PM 63.0 °F 44.1 °F 50% 30.12 in 10.0 mi West 6.9 mph - N/A   Overcast
4:53 PM 63.0 °F 45.0 °F 52% 30.12 in 10.0 mi SW 4.6 mph - N/A   Overcast
5:53 PM 64.0 °F 46.0 °F 52% 30.11 in 10.0 mi SSE 5.8 mph - N/A   Overcast
6:53 PM 64.0 °F 46.0 °F 52% 30.11 in 10.0 mi South 5.8 mph - N/A   Clear
7:53 PM 63.0 °F 46.9 °F 56% 30.10 in 10.0 mi South 5.8 mph - N/A   Clear
8:53 PM 62.1 °F 46.9 °F 58% 30.10 in 10.0 mi Calm Calm - N/A   Partly Cloudy
9:53 PM 55.9 °F 48.0 °F 75% 30.12 in 10.0 mi ESE 5.8 mph - N/A   Clear
10:53 PM 55.0 °F 48.0 °F 77% 30.12 in 10.0 mi East 8.1 mph - N/A   Partly Cloudy
11:53 PM 54.0 °F 46.9 °F 77% 30.11 in 10.0 mi East 5.8 mph - N/A   Clear